Location: Great Falls
(47.5000°N, 111.3000°W)
Time: 07:44:44
(UTC-06:00)

ISS - Pass Details

Date: 20 April 2025
Orbit: 416 x 420 km, 51.6° (Epoch: 15 May)

Event Time Altitude Azimuth Distance (km) Brightness Sun altitude
Exits shadow 05:45:22 - 210° (SSW) 1,810 -1.0 -7.3°
Reaches altitude 10° 05:46:14 10° 205° (SSW) 1,487 -1.4 -7.1°
Maximum altitude 05:49:11 29° 142° (SE) 787 -2.2 -6.7°
Drops below altitude 10° 05:52:09 10° 80° (E) 1,492 0.6 -6.2°
Sets 05:54:24 0° 69° (ENE) 2,365 2.8 -5.9°
